Regional Weather Roundup
Issued by NWS

Home | Current Version | Previous Version | Graphics & Text | Print | Product List | Glossary On
Versions: 1 2 3 4 5 6 7 8 9 10 11 12 13 14 15 16 17 18 19 20 21 22 23 24 25 26 27 28 29 30 31 32 33 34 35 36 37 38 39 40 41 42 43 44 45 46 47 48 49 50
535
ASUS43 KOAX 221110
RWRNE

WEATHER ROUNDUP FOR NEBRASKA
NATIONAL WEATHER SERVICE OMAHA NE
600 AM CDT THU JUN 22 2017

NOTES: SATELLITE DATA IS BEING USED TO AUGMENT CLOUD COVER ABOVE
       12000 FEET.
       "FAIR" INDICATES FEW OR NO CLOUDS BELOW 12,000 FEET WITH NO
       SIGNIFICANT WEATHER AND/OR OBSTRUCTIONS TO VISIBILITY.

  * THESE STATIONS DO NOT REPORT WEATHER SUCH AS RAIN...SNOW OR FOG.

NEZ001>004-019>022-054>056-221200-
NEBRASKA PANHANDLE

CITY           SKY/WX    TMP DP  RH WIND       PRES   REMARKS
SCOTTSBLUFF    PTCLDY    61  48  62 NW9       29.76R
ALLIANCE       CLEAR     58  49  72 W10       29.72R
CHADRON        PTCLDY    59  51  75 NW6       29.75R
GORDON         FAIR      61  56  84 CALM      29.69S
KIMBALL        CLOUDY    71  41  34 W14       29.84R
SIDNEY         CLOUDY    61  45  55 SW8       29.79F
$$

NEZ057>060-069>072-079>082-221200-
SOUTHWEST NEBRASKA

CITY           SKY/WX    TMP DP  RH WIND       PRES   REMARKS
NORTH PLATTE   CLEAR     72  55  55 S9        29.65F
IMPERIAL       CLEAR     69  51  52 SW9       29.70F
LEXINGTON      CLEAR     74  58  55 SW9       29.67S
MCCOOK         CLEAR     65  56  72 S10       29.69F
OGALLALA       CLEAR     62  53  72 W6        29.69S
$$

NEZ005>010-023>029-035>040-094-221200-
NORTH CENTRAL NEBRASKA

CITY           SKY/WX    TMP DP  RH WIND       PRES   REMARKS
VALENTINE      CLEAR     66  57  72 NE16      29.67S
AINSWORTH      CLEAR     66  64  96 N10       29.66R
BROKEN BOW     CLEAR     72  58  61 SW7       29.65F
O`NEILL        CLEAR     69  67  92 N7        29.65R
ORD            CLEAR     75  56  51 SE8       29.62S
THEDFORD       CLEAR     73  57  57 SW5       29.66S
$$

NEZ041-046>049-061>064-073>077-083>087-221200-
SOUTH CENTRAL NEBRASKA

CITY           SKY/WX    TMP DP  RH WIND       PRES   REMARKS
GRAND ISLAND   CLEAR     71  59  65 S12       29.68F
AURORA         PTCLDY    72  57  59 S9        29.68F
HASTINGS       CLEAR     72  57  59 S9        29.72R
HEBRON         MOCLDY    76  60  57 SW18G25   29.71S
HOLDREGE       CLEAR     69  55  60 S14G21    29.69S
KEARNEY *      CLEAR     72  55  56 S16G23    29.68R
YORK           PTCLDY    73  59  60 S13G18    29.69F
$$

NEZ011>018-030>034-042>045-221200-
NORTHEAST NEBRASKA

CITY           SKY/WX    TMP DP  RH WIND       PRES   REMARKS
NORFOLK        CLEAR     72  56  57 S9        29.62F
ALBION         CLEAR     68  59  72 SE7       29.65F
BLAIR          PTCLDY    76  60  56 S16       29.67S
FREMONT        PTCLDY    76  59  55 S8        29.67S
TEKAMAH        PTCLDY    77  59  53 S14       29.65R
WAYNE          CLEAR     72  59  64 SW7       29.65R
$$

NEZ050>053-065>068-078-088>093-221200-
SOUTHEAST NEBRASKA

CITY           SKY/WX    TMP DP  RH WIND       PRES   REMARKS
LINCOLN        CLOUDY    75  61  61 S7        29.68F
OMAHA EPPLEY   PTCLDY    77  60  55 S15       29.67R
BEATRICE       CLOUDY    76  62  61 S14G23    29.70F
FALLS CITY     CLOUDY    74  61  63 S15       29.73S
NEBRASKA CITY  CLOUDY    75  58  55 S16G24    29.69S
PLATTSMOUTH    PTCLDY    74  57  55 S9        29.70R
$$

NEZ044-045-051>053-067-221200-
OMAHA AREA

CITY           SKY/WX    TMP DP  RH WIND       PRES   REMARKS
OMAHA EPPLEY   PTCLDY    77  60  55 S15       29.67R
BLAIR          PTCLDY    76  60  56 S16       29.67S
FREMONT        PTCLDY    76  59  55 S8        29.67S
MILLARD        PTCLDY    78  62  58 S5        29.68S
OFFUTT AFB     PTCLDY    75  59  58 S9        29.68R
PLATTSMOUTH    PTCLDY    74  57  55 S9        29.70R
WAHOO          FAIR      75  58  55 S9        29.67S
$$




USA.gov is the U.S. government's official web portal to all federal, state and local government web resources and services.